[Iaude] MPEC G135: 2024 GN2 [a=1.78,e=0.63,i=1.2,H=26.5]
    mpec at cfa.harvard.edu 
    mpec at cfa.harvard.edu
       
    Wed Apr 10 09:57:56 EDT 2024
    
    
  
M.P.E.C. 2024-G135                               Issued 2024 April 10, 13:56 UT
     The Minor Planet Electronic Circulars contain information on unusual
         minor planets, routine data on comets and natural satellites,
         and occasional editorial announcements.  They are published
    on behalf of Division F of the International Astronomical Union by the
          Minor Planet Center, Smithsonian Astrophysical Observatory,
                          Cambridge, MA 02138, U.S.A.
			  
             Prepared using the Tamkin Foundation Computer Network
                              MPC at CFA.HARVARD.EDU
            URL https://www.minorplanetcenter.net/    ISSN 1523-6714
                                    2024 GN2                                    
Observations:
     K24G02N* C2024 04 09.40310413 22 05.853-13 24 42.70         21.93wXEG135F52
     K24G02N  C2024 04 09.41559413 22 05.158-13 24 57.88         21.48wXEG135F52
     K24G02N  C2024 04 09.42811013 22 04.432-13 25 13.23         21.40wXEG135F52
     K24G02N  C2024 04 09.44063713 22 03.721-13 25 28.51         21.86wXEG135F52
     K24G02N  C2024 04 09.55342613 21 57.547-13 27 40.43         21.14GVEG135F51
     K24G02N  C2024 04 09.55425213 21 57.519-13 27 41.24         21.44GVEG135F51
     K24G02N KC2024 04 10.34163913 21 50.620-13 46 25.70         20.64GVEG135I52
     K24G02N KC2024 04 10.34550913 21 50.370-13 46 31.70               VEG135I52
     K24G02N KC2024 04 10.34938113 21 50.150-13 46 37.00         21.02GVEG135I52
     K24G02N KC2024 04 10.35325313 21 49.910-13 46 43.60         21.05GVEG135I52
     K24G02N 3C2024 04 10.43156113 21 50.917-13 48 26.91         20.88GVEG135T14
     K24G02N 3C2024 04 10.43253913 21 50.848-13 48 28.53         20.85GVEG135T14
     K24G02N 3C2024 04 10.43351613 21 50.782-13 48 30.08         20.98GVEG135T14
Observer details:
F51 Pan-STARRS 1, Haleakala.  Observers J. Herman, T. Lowe, P. Minguez, A.
    Schultz, I. Smith.  Measurers K. Chambers, T. de Boer, J. Fairlamb, H.
    Gao, M. Huber, C.-C. Lin, E. Magnier, Y. Ramanjooloo, R. Wainscoat, R.
    Weryk.  1.8-m Ritchey-Chretien + CCD.
F52 Pan-STARRS 2, Haleakala.  Observers J. Herman, T. Lowe, P. Minguez, A.
    Schultz, I. Smith.  Measurers K. Chambers, T. de Boer, J. Fairlamb, H.
    Gao, M. Huber, C.-C. Lin, E. Magnier, Y. Ramanjooloo, R. Wainscoat, R.
    Weryk.  1.8-m Ritchey-Chretien + CCD.
I52 Steward Observatory, Mt. Lemmon Station.  Observer G. J. Leonard.
    Measurers T. Beuden, V. F. Carvajal, D. Fay, J. B. Fazekas, D. C. Fuls, A.
    R. Gibbs, A. D. Grauer, H. Groeller, J. K. Hogan, R. A. Kowalski, S. M.
    Larson, G. J. Leonard, D. Rankin, R. L. Seaman, F. C. Shelly, K. W.
    Wierzchos.  1.0-m prime focus + CCD.
T14 Canada-France-Hawaii Telescope, Maunakea.  Observers R. Wainscoat, A.
    Acohido, T. Burdullis.  Measurers R. Weryk, R. Wainscoat.  3.6-m f/4.1
    reflector + CCD.
Orbital elements:
2024 GN2                                                 Earth MOID = 0.0030 AU
Epoch 2024 Mar. 31.0 TT = JDT 2460400.5                 MPC                     
M 332.89910              (2000.0)            P               Q                  
n   0.41612344     Peri.   75.45733     +0.34611591     +0.93811194             
a   1.7768657      Node   214.80036     -0.86881948     +0.31557344             
e   0.6283475      Incl.    1.22865     -0.35405719     +0.14268630             
P   2.37           H   26.53          G   0.15           U   9                  
Residuals in seconds of arc
240409 F52  0.0   0.0     240409 F51  0.1+  0.0     240410 T14  0.0   0.0
240409 F52  0.1+  0.1+    240410 I52  0.2-  0.0     240410 T14  0.0   0.0
240409 F52  0.1-  0.0     240410 I52  0.3-  0.0     240410 T14  0.0   0.0
240409 F52  0.0   0.1-    240410 I52  0.0   0.6+
240409 F51  0.1-  0.1-    240410 I52  0.0   0.1-
Ephemeris:
2024 GN2                 a,e,i = 1.78, 0.63, 1                   q = 0.6604
Date    TT    R. A. (2000) Decl.     Delta      r    Elong.  Phase     V
2024 03 11    13 16 58.2 -10 34 36   0.4283  1.3776   148.7    22.0    26.4
...
2024 03 26    13 21 39.8 -11 34 20   0.2394  1.2275   162.1    14.5    24.7
...
2024 04 03    13 22 28.4 -12 13 29   0.1475  1.1450   169.3     9.4    23.3
...
2024 04 09    13 22 08.3 -13 16 06   0.08150 1.0826   173.7     5.8    21.7
2024 04 10    13 21 56.9 -13 36 27   0.07069 1.0722   174.1     5.5    21.4
2024 04 11    13 21 41.0 -14 03 50   0.05992 1.0618   174.2     5.5    21.0
...
2024 04 17    01 42 33.8 -23 50 53   0.0053690.9994    34.3   145.5    22.8
...
2024 04 25    01 24 26.1 +09 27 20   0.09045 0.9176    11.9   166.9
...
2024 05 10    01 29 10.3 +11 06 59   0.2642  0.7779    24.8   147.0    31.0
A. U. Tomatic                (C) Copyright 2024 MPC           M.P.E.C. 2024-G135
    
    
More information about the Iaude
mailing list